Starlink 35580

operational
NORAD ID: 66155 Int'l Des: 2025-240 Owner: SPXS Country: US Constellation: starlink
LEOCIRCULAR

Starlink 35580について

説明を読み込み中...

リアルタイム位置

3D地球を読み込み中...

次回通過

高度履歴

Altitude vs Time

uPlot chart will show altitude changes over time

軌道要素

1 66155U 25240K 25351.54627373 .00023973 00000-0 81938-3 0 9995
2 66155 53.1600 84.2349 0000990 84.4911 275.6203 15.30181028 9413
Epoch: Dec 17, 2025 • Age: 22 hours

現在のステータス

高度 475.4 km
速度 7.63 km/s
衛星直下点 5.16°N, 169.74°W
打ち上げ日 Oct 25, 2025
運用期間 0.1 years
タイプ internet

技術仕様

分類 Payload
質量 575.00 kg
乾燥質量 530.00 kg
総質量 575.00 kg
長さ 0.30 m
直径 4.10 m
スパン 29.00 m
形状 Box + pan
製造者 SPXS
バスタイプ Starlink V2MO
フェーズステータス In Orbit
所有者/国 SPXS/US

大規模コンステレーション

Loading constellations...